Location: El Mouella
(16.4949°N, 9.1594°W)
Time: 16:34:45
(UTC+00:00)

SL-4 R/B - Pass Details

Date: 02 June 2020
Orbit: 428 x 666 km, 51.6° (Epoch: 05 July)

Event Time Altitude Azimuth Distance (km) Brightness Sun altitude
Rises 20:24:54 0° 221° (SW) 2,755 5.7 -17.6°
Reaches altitude 10° 20:27:05 10° 222° (SW) 1,898 4.9 -18.0°
Maximum altitude 20:31:27 76° 307° (NW) 635 2.4 -18.9°
Drops below altitude 10° 20:36:07 10° 34° (NE) 2,027 4.9 -19.9°
Sets 20:38:31 0° 36° (NE) 2,960 5.7 -20.4°
